GW4718 Weather Reports


time (UTC)temp
C
wind
direction
speed
KPH
gust
KPH
rain 1hr
cm
rain 24hr
cm
rain mn
cm
humidity
%
barometer
mb
20260509215452 20 189 4.8 4.8 0.00 0.00 0.00 44 1012.2
20260509214950 19 195 3.2 4.8 0.00 0.00 0.00 43 1011.9
20260509214447 20 283 1.6 11.3 0.00 0.00 0.00 46 1012.0
20260509213944 19 195 8.0 14.5 0.00 0.00 0.00 47 1012.1
20260509213440 20 264 6.4 9.7 0.00 0.00 0.00 44 1012.0
20260509212937 20 168 4.8 9.7 0.00 0.00 0.00 41 1011.8
20260509212435 20 230 6.4 6.4 0.00 0.00 0.00 43 1011.6
20260509211930 20 278 3.2 9.7 0.00 0.00 0.00 41 1011.6
20260509211426 21 258 8.0 11.3 0.00 0.00 0.00 41 1011.7
20260509210923 20 170 8.0 12.9 0.00 0.00 0.00 42 1011.4
20260509210420 20 214 6.4 9.7 0.00 0.00 0.00 44 1011.2
20260509205915 21 203 1.6 11.3 0.00 0.00 0.00 43 1011.5
20260509205415 20 224 9.7 12.9 0.00 0.00 0.00 41 1011.2
20260509204911 20 209 3.2 16.1 0.00 0.00 0.00 43 1011.2
20260509204408 19 233 8.0 17.7 0.00 0.00 0.00 40 1011.1
20260509203904 19 168 11.3 14.5 0.00 0.00 0.00 40 1010.9
20260509203401 20 195 3.2 9.7 0.00 0.00 0.00 43 1011.0
20260509202858 20 193 11.3 12.9 0.00 0.00 0.00 40 1010.9
20260509202354 20 211 6.4 17.7 0.00 0.00 0.00 40 1010.9
20260509201849 20 176 9.7 22.5 0.00 0.00 0.00 39 1010.9
20260509201345 20 278 9.7 14.5 0.00 0.00 0.00 37 1010.9
20260509200842 21 170 16.1 20.9 0.00 0.00 0.00 39 1010.9
20260509200336 21 233 4.8 6.4 0.00 0.00 0.00 39 1010.9
20260509195834 21 156 12.9 20.9 0.00 0.00 0.00 38 1011.1
20260509195333 20 183 17.7 24.1 0.00 0.00 0.00 39 1010.9
20260509194828 20 217 6.4 12.9 0.00 0.00 0.00 39 1010.9
20260509194324 20 241 9.7 16.1 0.00 0.00 0.00 42 1011.1
20260509193821 20 203 4.8 12.9 0.00 0.00 0.00 41 1011.0
20260509193321 20 206 12.9 20.9 0.00 0.00 0.00 40 1010.9
20260509192817 20 225 4.8 9.7 0.00 0.00 0.00 43 1011.0
20260509192313 20 288 4.8 14.5 0.00 0.00 0.00 40 1010.9
20260509191808 20 215 4.8 9.7 0.00 0.00 0.00 46 1011.0
20260509191305 20 144 11.3 17.7 0.00 0.00 0.00 40 1011.4
20260509190800 21 215 3.2 6.4 0.00 0.00 0.00 45 1011.4
20260509190258 20 58 0.0 6.4 0.00 0.00 0.00 40 1011.1
20260509185755 19 227 3.2 9.7 0.00 0.00 0.00 47 1011.4
20260509185251 19 206 6.4 12.9 0.00 0.00 0.00 49 1011.4
20260509184749 19 209 3.2 11.3 0.00 0.00 0.00 41 1011.4
20260509184246 19 229 6.4 11.3 0.00 0.00 0.00 45 1011.2
20260509183742 20 179 9.7 11.3 0.00 0.00 0.00 47 1011.2
20260509183238 21 263 8.0 16.1 0.00 0.00 0.00 44 1011.4
20260509182734 20 272 4.8 20.9 0.00 0.00 0.00 43 1011.4
20260509182231 20 6 4.8 14.5 0.00 0.00 0.00 45 1011.5
20260509181728 21 222 9.7 20.9 0.00 0.00 0.00 48 1011.4
20260509181225 20 156 4.8 6.4 0.00 0.00 0.00 45 1011.7
20260509180722 19 241 1.6 11.3 0.00 0.00 0.00 51 1011.8
20260509180219 19 307 3.2 4.8 0.00 0.00 0.00 46 1011.9
20260509175715 19 181 6.4 11.3 0.00 0.00 0.00 45 1011.8
20260509175212 19 234 4.8 11.3 0.00 0.00 0.00 51 1011.8
20260509174707 19 220 8.0 16.1 0.00 0.00 0.00 49 1011.8
20260509174202 19 271 3.2 9.7 0.00 0.00 0.00 52 1012.1
20260509173659 19 181 4.8 4.8 0.00 0.00 0.00 53 1012.1
20260509173155 18 214 1.6 4.8 0.00 0.00 0.00 49 1012.2
20260509172651 18 348 3.2 3.2 0.00 0.00 0.00 53 1012.3
20260509172147 18 356 1.6 3.2 0.00 0.00 0.00 50 1012.4
20260509171643 18 22 1.6 3.2 0.00 0.00 0.00 51 1012.4
20260509171140 18 279 3.2 4.8 0.00 0.00 0.00 50 1012.4
20260509170636 17 355 1.6 3.2 0.00 0.00 0.00 55 1012.6
20260509170132 18 324 0.0 0.0 0.00 0.00 0.00 49 1012.8
20260509165631 17 104 0.0 3.2 0.00 0.00 0.00 50 1012.6
20260509165127 17 13 1.6 3.2 0.00 0.00 0.00 57 1012.5
20260509164623 16 36 3.2 6.4 0.00 0.00 0.00 54 1012.6
20260509164119 16 25 3.2 4.8 0.00 0.00 0.00 53 1012.6
20260509163617 16 48 6.4 6.4 0.00 0.00 0.00 54 1012.6
20260509163112 16 57 1.6 6.4 0.00 0.00 0.00 54 1012.7
20260509162610 16 45 0.0 0.0 0.00 0.00 0.00 55 1012.8
20260509162105 16 73 3.2 4.8 0.00 0.00 0.00 57 1012.8
20260509161602 16 44 1.6 1.6 0.00 0.00 0.00 58 1012.7
20260509161056 16 76 1.6 3.2 0.00 0.00 0.00 57 1012.9
20260509160553 16 24 4.8 4.8 0.00 0.00 0.00 56 1012.6
20260509160048 16 13 3.2 4.8 0.00 0.00 0.00 56 1012.7
20260509155544 16 2 3.2 3.2 0.00 0.00 0.00 55 1012.6
20260509155041 16 12 3.2 4.8 0.00 0.00 0.00 54 1012.6
20260509154537 17 3 0.0 3.2 0.00 0.00 0.00 52 1012.5
20260509154035 17 25 0.0 3.2 0.00 0.00 0.00 52 1012.3
20260509153531 17 335 4.8 9.7 0.00 0.00 0.00 53 1012.3
20260509153028 17 267 1.6 4.8 0.00 0.00 0.00 51 1012.5
20260509152524 17 277 1.6 4.8 0.00 0.00 0.00 49 1012.4
20260509152021 17 128 1.6 3.2 0.00 0.00 0.00 48 1012.3
20260509151518 17 202 4.8 6.4 0.00 0.00 0.00 52 1012.3
20260509151016 17 273 1.6 4.8 0.00 0.00 0.00 52 1012.1
20260509150513 17 309 0.0 1.6 0.00 0.00 0.00 50 1012.2
20260509150011 17 325 3.2 4.8 0.00 0.00 0.00 51 1012.3
20260509145507 17 322 1.6 3.2 0.00 0.00 0.00 49 1012.3
20260509145001 17 24 1.6 1.6 0.00 0.00 0.00 49 1012.4
20260509144459 17 107 0.0 4.8 0.00 0.00 0.00 52 1012.5
20260509143955 17 284 0.0 6.4 0.00 0.00 0.00 50 1012.5
20260509143452 16 236 0.0 1.6 0.00 0.00 0.00 53 1012.5
20260509142949 16 246 6.4 9.7 0.00 0.00 0.00 51 1012.4
20260509142446 16 243 3.2 9.7 0.00 0.00 0.00 53 1012.6
20260509141941 17 36 0.0 6.4 0.00 0.00 0.00 49 1012.1
20260509141438 18 236 3.2 3.2 0.00 0.00 0.00 51 1012.3
20260509140935 16 282 0.0 1.6 0.00 0.00 0.00 51 1012.5
20260509140431 16 175 8.0 9.7 0.00 0.00 0.00 52 1012.6
20260509135930 16 218 6.4 9.7 0.00 0.00 0.00 59 1012.8
20260509135427 16 302 3.2 6.4 0.00 0.00 0.00 50 1012.7
20260509134924 15 197 1.6 4.8 0.00 0.00 0.00 56 1013.0
20260509134421 15 199 4.8 9.7 0.00 0.00 0.00 59 1013.0
20260509133919 15 180 3.2 4.8 0.00 0.00 0.00 56 1013.0
20260509133415 15 259 1.6 4.8 0.00 0.00 0.00 65 1013.2
20260509132914 14 187 0.0 6.4 0.00 0.00 0.00 61 1013.4
20260509132411 14 243 3.2 4.8 0.00 0.00 0.00 65 1013.4
20260509131908 13 220 4.8 9.7 0.00 0.00 0.00 64 1013.2
20260509131405 13 247 3.2 6.4 0.00 0.00 0.00 68 1013.4
20260509130902 13 191 3.2 9.7 0.00 0.00 0.00 66 1013.5
20260509130357 12 323 0.0 1.6 0.00 0.00 0.00 71 1013.6
20260509125854 12 101 0.0 1.6 0.00 0.00 0.00 71 1013.4
20260509125350 12 82 1.6 3.2 0.00 0.00 0.00 73 1013.7
20260509124847 12 53 0.0 3.2 0.00 0.00 0.00 73 1013.5
20260509124344 12 231 0.0 1.6 0.00 0.00 0.00 72 1013.4
20260509123842 11 53 0.0 0.0 0.00 0.00 0.00 73 1013.3
20260509123339 11 53 0.0 0.0 0.00 0.00 0.00 75 1013.5
20260509122835 11 53 0.0 0.0 0.00 0.00 0.00 73 1013.5
20260509122332 11 53 0.0 0.0 0.00 0.00 0.00 75 1013.4
20260509121829 10 54 0.0 0.0 0.00 0.00 0.00 75 1013.4
20260509121326 10 56 1.6 1.6 0.00 0.00 0.00 76 1013.4
20260509120824 10 54 0.0 0.0 0.00 0.00 0.00 77 1013.4
20260509120321 10 46 0.0 0.0 0.00 0.00 0.00 80 1013.4
20260509115819 10 46 0.0 0.0 0.00 0.00 0.00 80 1013.4
20260509115316 10 44 1.6 3.2 0.00 0.00 0.00 79 1013.5
20260509114814 9 41 1.6 3.2 0.00 0.00 0.00 80 1013.6
20260509114312 9 37 0.0 1.6 0.00 0.00 0.00 81 1013.7
20260509113811 9 36 0.0 1.6 0.00 0.00 0.00 81 1013.7
20260509113307 9 13 0.0 0.0 0.00 0.00 0.00 82 1013.9
20260509112805 8 54 0.0 3.2 0.00 0.00 0.00 83 1013.6
20260509112306 8 38 1.6 3.2 0.00 0.00 0.00 81 1013.8
20260509111759 8 53 1.6 1.6 0.00 0.00 0.00 80 1013.4
20260509111255 8 71 0.0 0.0 0.00 0.00 0.00 81 1013.6
20260509110753 8 72 0.0 0.0 0.00 0.00 0.00 81 1013.6
20260509110249 8 74 0.0 0.0 0.00 0.00 0.00 82 1013.5
20260509105748 8 75 0.0 3.2 0.00 0.00 0.00 81 1013.6
20260509105245 8 73 0.0 0.0 0.00 0.00 0.00 83 1013.5
20260509104741 8 86 0.0 0.0 0.00 0.00 0.00 81 1013.8
20260509104238 7 103 0.0 0.0 0.00 0.00 0.00 81 1013.6
20260509103737 7 104 0.0 0.0 0.00 0.00 0.00 81 1013.6
20260509103233 7 100 0.0 0.0 0.00 0.00 0.00 83 1013.5
20260509102732 7 101 0.0 0.0 0.00 0.00 0.00 81 1013.5
20260509102228 7 90 0.0 0.0 0.00 0.00 0.00 82 1013.6
20260509101725 7 90 0.0 0.0 0.00 0.00 0.00 82 1013.6
20260509101222 7 90 0.0 0.0 0.00 0.00 0.00 82 1013.6
20260509100719 7 91 0.0 0.0 0.00 0.00 0.00 82 1013.4
20260509100216 7 93 0.0 0.0 0.00 0.00 0.00 82 1013.4
20260509095713 7 93 0.0 0.0 0.00 0.00 0.00 82 1013.4
20260509095210 7 93 0.0 0.0 0.00 0.00 0.00 82 1013.6
20260509094707 7 93 0.0 0.0 0.00 0.00 0.00 82 1013.6
20260509094203 7 93 0.0 0.0 0.00 0.00 0.00 81 1013.5
20260509093702 7 93 0.0 0.0 0.00 0.00 0.00 81 1013.6
20260509093158 7 93 0.0 0.0 0.00 0.00 0.00 81 1013.5
20260509092656 7 93 0.0 0.0 0.00 0.00 0.00 81 1013.7
20260509092155 7 93 0.0 0.0 0.00 0.00 0.00 80 1013.8
20260509091653 7 93 0.0 0.0 0.00 0.00 0.00 79 1013.9
20260509091148 8 93 0.0 0.0 0.00 0.00 0.00 78 1013.8
20260509090646 7 78 0.0 0.0 0.00 0.00 0.00 79 1013.7
20260509090143 8 56 0.0 1.6 0.00 0.00 0.00 78 1013.8
20260509085641 8 104 0.0 0.0 0.00 0.00 0.00 78 1013.9
20260509085137 8 106 0.0 0.0 0.00 0.00 0.00 77 1013.9
20260509084635 8 112 0.0 0.0 0.00 0.00 0.00 75 1013.9
20260509084131 8 134 0.0 0.0 0.00 0.00 0.00 77 1013.9
20260509083629 8 67 0.0 0.0 0.00 0.00 0.00 77 1013.9
20260509083125 8 67 0.0 0.0 0.00 0.00 0.00 78 1014.1
20260509082623 8 69 0.0 0.0 0.00 0.00 0.00 77 1014.1
20260509082119 8 110 0.0 0.0 0.00 0.00 0.00 74 1014.1
20260509081616 8 196 0.0 0.0 0.00 0.00 0.00 73 1014.1
20260509081114 8 204 1.6 3.2 0.00 0.00 0.00 74 1014.2
20260509080612 8 146 3.2 4.8 0.00 0.00 0.00 73 1013.9
20260509080109 8 199 1.6 3.2 0.00 0.00 0.00 73 1013.8
20260509075607 8 191 0.0 4.8 0.00 0.00 0.00 72 1013.8
20260509075104 8 177 3.2 6.4 0.00 0.00 0.00 72 1014.1
20260509074600 8 162 1.6 3.2 0.00 0.00 0.00 74 1014.1
20260509074051 8 139 1.6 6.4 0.00 0.00 0.00 72 1014.2
20260509073548 8 149 1.6 1.6 0.00 0.00 0.00 76 1013.9
20260509073044 8 135 0.0 0.0 0.00 0.00 0.00 78 1014.1
20260509072540 8 5 0.0 0.0 0.00 0.00 0.00 78 1014.0
20260509072038 8 98 0.0 0.0 0.00 0.00 0.00 78 1014.2
20260509071534 8 70 0.0 0.0 0.00 0.00 0.00 77 1014.1
20260509071032 8 324 0.0 0.0 0.00 0.00 0.00 78 1014.3
20260509070529 8 324 0.0 0.0 0.00 0.00 0.00 76 1014.3
20260509070025 8 171 1.6 4.8 0.00 0.00 0.00 75 1014.3
20260509065520 8 214 1.6 3.2 0.00 0.00 0.00 75 1014.4
20260509065017 7 186 4.8 4.8 0.00 0.00 0.00 78 1014.4
20260509064515 7 61 1.6 1.6 0.00 0.00 0.00 80 1014.5
20260509064013 7 59 0.0 0.0 0.00 0.00 0.00 79 1014.4
20260509063508 7 60 0.0 1.6 0.00 0.00 0.00 81 1014.5
20260509063005 7 191 0.0 3.2 0.00 0.00 0.00 78 1014.4
20260509062502 6 166 0.0 1.6 0.00 0.00 0.00 81 1014.5
20260509062000 6 95 0.0 0.0 0.00 0.00 0.00 82 1014.6
20260509061457 6 70 0.0 0.0 0.00 0.00 0.00 81 1014.5
20260509060954 6 119 0.0 0.0 0.00 0.00 0.00 82 1015.0
20260509060452 6 120 0.0 0.0 0.00 0.00 0.00 82 1014.7
20260509055947 6 103 0.0 0.0 0.00 0.00 0.00 82 1014.7
20260509055442 6 116 0.0 0.0 0.00 0.00 0.00 81 1014.7
20260509054939 6 85 0.0 0.0 0.00 0.00 0.00 81 1014.6
20260509054436 6 85 0.0 0.0 0.00 0.00 0.00 81 1014.8
20260509053934 6 163 0.0 0.0 0.00 0.00 0.00 81 1014.8
20260509053432 6 186 0.0 1.6 0.00 0.00 0.00 81 1015.2
20260509052929 6 150 0.0 0.0 0.00 0.00 0.00 80 1015.0
20260509052426 6 148 0.0 0.0 0.00 0.00 0.00 78 1015.1
20260509051924 7 114 0.0 0.0 0.00 0.00 0.00 77 1015.0
20260509051422 6 119 0.0 0.0 0.00 0.00 0.00 79 1015.1
20260509050918 7 132 0.0 0.0 0.00 0.00 0.00 77 1015.1
20260509050415 7 211 0.0 0.0 0.00 0.00 0.00 76 1015.0
20260509045912 7 215 0.0 0.0 0.00 0.00 0.00 75 1015.1
20260509045409 7 136 0.0 1.6 0.00 0.00 0.00 74 1015.1
20260509044906 7 135 0.0 0.0 0.00 0.00 0.00 76 1015.1
20260509044404 7 132 0.0 0.0 0.00 0.00 0.00 75 1015.0
20260509043900 7 134 0.0 0.0 0.00 0.00 0.00 75 1015.1
20260509043356 8 155 0.0 1.6 0.00 0.00 0.00 74 1015.2
20260509042852 8 203 0.0 0.0 0.00 0.00 0.00 73 1015.0
20260509042349 8 143 0.0 1.6 0.00 0.00 0.00 70 1015.1
20260509041845 8 122 0.0 0.0 0.00 0.00 0.00 70 1015.0
20260509041342 9 134 0.0 0.0 0.00 0.00 0.00 68 1015.1
20260509040841 10 204 1.6 4.8 0.00 0.00 0.00 65 1015.0
20260509040338 9 189 0.0 0.0 0.00 0.00 0.00 69 1015.0
20260509035835 9 130 0.0 1.6 0.00 0.00 0.00 70 1015.0
20260509035332 9 132 0.0 0.0 0.00 0.00 0.00 69 1015.0
20260509034828 10 121 1.6 1.6 0.00 0.00 0.00 70 1015.0
20260509034326 10 162 0.0 1.6 0.00 0.00 0.00 68 1015.0
20260509033822 10 78 0.0 1.6 0.00 0.00 0.00 67 1015.0
20260509033320 9 180 1.6 3.2 0.00 0.00 0.00 70 1014.7
20260509032816 9 131 0.0 0.0 0.00 0.00 0.00 72 1014.8
20260509032314 8 125 0.0 0.0 0.00 0.00 0.00 73 1015.0
20260509031812 8 187 0.0 0.0 0.00 0.00 0.00 74 1015.0
20260509031309 9 97 0.0 0.0 0.00 0.00 0.00 73 1015.0
20260509030806 9 199 0.0 0.0 0.00 0.00 0.00 70 1015.0
20260509030304 9 260 1.6 4.8 0.00 0.00 0.00 70 1015.0
20260509025800 9 220 0.0 3.2 0.00 0.00 0.00 71 1015.0
20260509025256 9 139 0.0 1.6 0.00 0.00 0.00 69 1014.8
20260509024751 9 212 0.0 1.6 0.00 0.00 0.00 70 1015.1
20260509024248 9 214 0.0 1.6 0.00 0.00 0.00 69 1015.1
20260509023745 10 139 0.0 0.0 0.00 0.00 0.00 67 1015.2
20260509023242 9 147 0.0 0.0 0.00 0.00 0.00 68 1015.0
20260509022738 10 120 0.0 1.6 0.00 0.00 0.00 68 1015.0
20260509022236 9 102 0.0 0.0 0.00 0.00 0.00 69 1015.0
20260509021733 9 68 0.0 0.0 0.00 0.00 0.00 71 1014.8
20260509021230 10 66 0.0 1.6 0.00 0.00 0.00 70 1015.2
20260509020728 10 153 0.0 1.6 0.00 0.00 0.00 69 1015.1
20260509020225 9 149 0.0 1.6 0.00 0.00 0.00 69 1015.0
20260509015723 9 226 1.6 3.2 0.00 0.00 0.00 71 1014.8
20260509015221 9 175 0.0 3.2 0.00 0.00 0.00 74 1014.7
20260509014717 10 181 0.0 3.2 0.00 0.00 0.00 70 1014.6
20260509014214 10 145 0.0 0.0 0.00 0.00 0.00 66 1014.8
20260509013711 10 143 0.0 0.0 0.00 0.00 0.00 67 1014.8
20260509013206 10 142 0.0 0.0 0.00 0.00 0.00 66 1014.6
20260509012703 10 99 0.0 0.0 0.00 0.00 0.00 66 1014.7
20260509012200 11 97 0.0 0.0 0.00 0.00 0.00 65 1014.7
20260509011658 11 85 0.0 0.0 0.00 0.00 0.00 63 1014.6
20260509011155 11 171 0.0 0.0 0.00 0.00 0.00 67 1014.6
20260509010653 11 167 0.0 0.0 0.00 0.00 0.00 66 1014.7
20260509010149 11 104 0.0 0.0 0.00 0.00 0.00 62 1014.7
20260509005647 11 93 0.0 0.0 0.00 0.00 0.00 61 1014.6
20260509005143 11 88 0.0 0.0 0.00 0.00 0.00 61 1014.5
20260509004638 11 144 0.0 0.0 0.00 0.00 0.00 62 1014.6
20260509004136 11 195 0.0 0.0 0.00 0.00 0.00 61 1014.5
20260509003634 12 180 0.0 1.6 0.00 0.00 0.00 58 1014.4
20260509003131 12 143 0.0 0.0 0.00 0.00 0.00 57 1014.5
20260509002629 12 105 0.0 0.0 0.00 0.00 0.00 54 1014.4
20260509002126 13 67 3.2 3.2 0.00 0.00 0.00 54 1014.5
20260509001624 13 282 0.0 0.0 0.00 0.00 0.00 53 1014.4
20260509001119 13 171 0.0 0.0 0.00 0.00 0.00 52 1014.4
20260509000618 14 138 0.0 0.0 0.00 0.00 0.00 51 1014.4
20260509000114 14 128 0.0 0.0 0.00 0.00 0.00 49 1014.3
20260508235611 15 303 0.0 3.2 0.00 0.00 0.00 42 1014.4
20260508235107 14 172 3.2 3.2 0.00 0.00 0.00 45 1014.2
20260508234605 15 207 1.6 3.2 0.00 0.00 0.00 46 1014.0
20260508234101 15 262 1.6 1.6 0.00 0.00 0.00 46 1014.0
20260508233555 15 215 3.2 6.4 0.00 0.00 0.00 44 1013.7
20260508233052 16 231 1.6 9.7 0.00 0.00 0.00 41 1013.7
20260508232549 16 179 3.2 9.7 0.00 0.00 0.00 38 1013.5
20260508232046 16 244 4.8 4.8 0.00 0.00 0.00 39 1013.7
20260508231543 17 229 4.8 6.4 0.00 0.00 0.00 40 1013.6
20260508231040 19 228 4.8 9.7 0.00 0.00 0.00 35 1013.6
20260508230537 19 279 3.2 6.4 0.00 0.00 0.00 35 1013.6
20260508230033 19 248 3.2 6.4 0.00 0.00 0.00 35 1013.8
20260508225531 19 176 4.8 9.7 0.00 0.00 0.00 33 1013.8
20260508225027 19 231 3.2 4.8 0.00 0.00 0.00 32 1013.7
20260508224525 19 263 4.8 12.9 0.00 0.00 0.00 35 1014.0
20260508224022 19 186 8.0 16.1 0.00 0.00 0.00 33 1013.8
20260508223520 20 230 6.4 16.1 0.00 0.00 0.00 33 1013.8
20260508223017 20 175 3.2 6.4 0.00 0.00 0.00 35 1013.6
20260508222515 20 259 6.4 9.7 0.00 0.00 0.00 31 1013.6
20260508222012 20 158 6.4 11.3 0.00 0.00 0.00 31 1013.8
20260508221508 20 256 3.2 9.7 0.00 0.00 0.00 35 1013.7
20260508221004 18 259 4.8 12.9 0.00 0.00 0.00 36 1013.7
20260508220500 19 214 9.7 24.1 0.00 0.00 0.00 32 1013.7
20260508215956 20 180 12.9 14.5 0.00 0.00 0.00 31 1013.7